This demonstration page uses our WeatherBlox Daily Observations layout. Learn more.

Left ArrowRight Arrow

53.62937, 11.41316

Hourly Observations for August 17, 2021

Temp ( °F °C ) Dew Point ( °F °C ) Humidity (%) Winds ( mph kmh ) Pressure ( in mb ) Visibility ( mi km ) Precip ( " mm )
6:20 am 06:20 Partly Cloudy with Drizzle 55 13 54 12 94 94 SW 12 19 29.71 1006 30 48 N/A
6:50 am 06:50 Partly Cloudy 55 13 54 12 94 94 SW 12 19 29.74 1007 30 48 N/A
7:20 am 07:20 Partly Cloudy 57 14 54 12 88 88 SW 10 17 29.74 1007 30 48 N/A
7:50 am 07:50 Partly Cloudy 57 14 54 12 88 88 SW 10 17 29.74 1007 30 48 N/A
8:20 am 08:20 Mostly Sunny 59 15 55 13 88 88 SW 12 19 29.74 1007 30 48 N/A
8:50 am 08:50 Mostly Sunny 61 16 55 13 83 83 SW 10 17 29.74 1007 30 48 N/A
9:20 am 09:20 Partly Cloudy 61 16 55 13 83 83 SW 13 20 29.74 1007 30 48 N/A
9:50 am 09:50 Partly Cloudy 63 17 55 13 77 77 SW 13 20 29.77 1008 30 48 N/A
10:20 am 10:20 Mostly Cloudy 63 17 55 13 77 77 SW 14 22 29.77 1008 30 48 N/A
10:50 am 10:50 Mostly Cloudy 64 18 55 13 73 73 WSW 12 19 29.77 1008 30 48 N/A
11:20 am 11:20 Mostly Cloudy 63 17 55 13 77 77 SW 15 24 29.77 1008 30 48 N/A
11:50 am 11:50 Mostly Cloudy 64 18 55 13 73 73 SSW 22 35 29.77 1008 30 48 N/A
12:20 pm 12:20 Mostly Cloudy 61 16 55 13 83 83 SW 15 24 29.77 1008 30 48 N/A
12:50 pm 12:50 Partly Cloudy 61 16 55 13 83 83 SW 15 24 29.77 1008 30 48 N/A
1:20 pm 13:20 Mostly Cloudy 63 17 55 13 77 77 SW 15 24 29.77 1008 30 48 N/A
1:50 pm 13:50 Mostly Cloudy 61 16 57 14 88 88 SW 16 26 29.77 1008 30 48 N/A
2:20 pm 14:20 Mostly Cloudy with Light Rain 61 16 55 13 83 83 SW 18 30 29.80 1009 30 48 N/A
2:50 pm 14:50 Mostly Cloudy with Light Rain 59 15 57 14 94 94 SW 14 22 29.80 1009 30 48 N/A
3:20 pm 15:20 Mostly Cloudy 61 16 57 14 88 88 SW 14 22 29.80 1009 30 48 N/A
3:50 pm 15:50 Mostly Cloudy with Light Rain 61 16 57 14 88 88 SW 17 28 29.80 1009 30 48 N/A
4:20 pm 16:20 Mostly Cloudy with Light Rain 59 15 57 14 94 94 SW 16 26 29.80 1009 30 48 N/A
4:50 pm 16:50 Mostly Cloudy with Light Rain 59 15 55 13 88 88 SW 17 28 29.80 1009 30 48 N/A
5:20 pm 17:20 Mostly Cloudy with Light Rain 59 15 55 13 88 88 SW 18 30 29.83 1010 30 48 N/A
5:50 pm 17:50 Mostly Cloudy with Light Rain 59 15 55 13 88 88 SW 15 24 29.83 1010 30 48 N/A
6:20 pm 18:20 Mostly Cloudy 59 15 55 13 88 88 SW 14 22 29.83 1010 30 48 N/A
6:50 pm 18:50 Mostly Cloudy 61 16 55 13 83 83 SW 13 20 29.83 1010 30 48 N/A
7:20 pm 19:20 Mostly Cloudy 61 16 54 12 77 77 SW 12 19 29.83 1010 30 48 N/A
7:50 pm 19:50 Mostly Cloudy 61 16 54 12 77 77 SW 13 20 29.83 1010 30 48 N/A
8:20 pm 20:20 Mostly Cloudy with Drizzle 61 16 54 12 77 77 SW 10 17 29.83 1010 30 48 N/A
8:50 pm 20:50 Mostly Cloudy 61 16 54 12 77 77 SW 10 17 29.83 1010 30 48 N/A
9:20 pm 21:20 Mostly Cloudy 61 16 54 12 77 77 SW 9 15 29.83 1010 30 48 N/A
9:50 pm 21:50 Mostly Clear 59 15 52 11 77 77 SW 10 17 29.83 1010 7 11 N/A
10:20 pm 22:20 Mostly Clear 59 15 52 11 77 77 SW 10 17 29.83 1010 30 48 N/A

Powered by AerisWeather